Al-Kharj, Saudi Arabia

11:10 AM AST on August 31, 2015 (GMT +0300)
Prince Sultan Air Base | | Change Station
CLOSE
Current Station
Airport
Location: Al Kharj Air Base,
Elevation: 1640 ft
Nearby Weather Stations

Elev 1640 ft 24.07 °N, 47.58 °E | Updated 1 hour ago

Clear
Clear
111 °F
Feels Like 111 °F
N
2
Wind Variable Wind from Variable

Today
High -- | Low -- °F
--% Chance of Precip.
Yesterday
High -- | Low -- °F
Precip. -- in
5:31 AM 6:10 PM
Waning Gibbous, 96% visible
Pressure 29.86 in
Visibility -9999.0 miles
Clouds
Dew Point 37 °F
Humidity 8%
Rainfall 0.00 in
Snow Depth Not available.
UV Not available.
Pollen Not available.
Air Quality Not available.
Flu Activity Not available.
METAR OEKJ 310700Z VRB02KT CAVOK 44/03 Q1011
Pressure 29.86 in
Visibility -9999.0 miles
Clouds
Dew Point 37 °F
Humidity 8%
Rainfall 0.00 in
Snow Depth Not available.
UV Not available.
Pollen Not available.
Air Quality Not available.
Flu Activity Not available.
METAR OEKJ 310700Z VRB02KT CAVOK 44/03 Q1011

10-Day Weather Forecast

×

Almanac

Astronomy

Aug. 31, 2015 Rise Set
Actual Time
Civil Twilight
Nautical Twilight
Astronomical Twilight
Moon
Length of Visible Light
Length of Day
Tomorrow will be .
, % of the Moon is Illuminated

Today's Extremes

Country Highs Country Lows

Community

WunderPhotos

Upload Photos

1,851,220 photos uploaded!

WunderBlogs® & News

Nearby

Air Quality

  Air Quality AQ Index Pollutant
Not available.

Snow Depth

Station Depth Elevation

Earthquake Activity

City Distance Mag. Time & Date
Minimum magnitude displayed is 2.5.

Coastal Water Temperatures

Place Temperature

Stations

Nearby Weather Stations

Station Location Temp. Windchill Dew Point Humidity Wind Precip. Elev Updated Type